AO-07 1 07530U 74089B 25136.94694103 -.00000050 00000-0 -21374-4 0 9994 2 07530 101.9937 140.9589 0012307 165.4844 261.3890 12.53689052310866 AO-27 1 22825U 93061C 25137.14054739 .00000124 00000-0 64581-4 0 9994 2 22825 98.7379 198.5774 0008528 173.9409 186.1878 14.30791298650634 FO-29 1 24278U 96046B 25137.31537287 .00000005 00000-0 39957-4 0 9994 2 24278 98.5783 34.2665 0350732 43.0050 319.7942 13.53247573419877 ISS 1 25544U 98067A 25137.37867795 .00009856 00000-0 18315-3 0 9999 2 25544 51.6353 99.6980 0002289 118.7619 241.3599 15.49573655510380 SO-50 1 27607U 02058C 25136.79326116 .00001160 00000-0 16243-3 0 9996 2 27607 64.5529 273.9545 0053509 339.5059 20.3898 14.81563009205707 AO-73 1 39444U 13066AE 25136.83295561 .00007197 00000-0 54313-3 0 9999 2 39444 97.7828 98.6615 0043406 106.2347 254.3659 15.01974204620029 IO-86 1 40931U 15052B 25038.81889873 .00001817 00000-0 15548-3 0 9993 2 40931 6.0001 108.1159 0012838 187.7041 172.2889 14.78568669506492 AO-91 1 43017U 17073E 25137.38165385 .00009468 00000-0 49066-3 0 9995 2 43017 97.5285 8.7444 0172300 245.4428 112.8756 15.04374034405721 PO-101 1 43678U 18084H 25137.48132678 .00002994 00000-0 25736-3 0 9996 2 43678 98.1016 312.7272 0007955 9.8703 350.2673 14.98225828356922 QO-100 1 43700U 18090A 25136.88324264 .00000157 00000-0 00000-0 0 9999 2 43700 0.0158 286.3296 0002115 162.7520 129.5459 1.00269105 23709 JO-97 1 43803U 18099AX 25137.15706891 .00014265 00000-0 65868-3 0 9994 2 43803 97.4671 196.4504 0006865 214.0249 146.0547 15.20295124353212 TO-108 1 44881U 19093C 25137.52442018 .00001224 00000-0 14765-3 0 9996 2 44881 97.7927 213.6559 0012608 311.3025 48.7104 14.85555777292653 RS-44 1 44909U 19096E 25137.56914352 .00000038 00000-0 10967-3 0 9991 2 44909 82.5222 242.5640 0217135 349.6827 9.9852 12.79740519251792 CSS 1 48274U 21035A 25137.52022770 .00038321 00000-0 42687-3 0 9996 2 48274 41.4636 206.9701 0006294 286.8321 73.1828 15.62063124231361 HO-113 1 50466U 21131B 25137.49646692 .00000696 00000-0 23129-3 0 9994 2 50466 98.5091 226.9640 0004007 188.1011 172.0113 14.40786672178124 TO-108 1 54684U 22167C 25064.68183564 .08547514 26414-5 93170-3 0 9992 2 54684 97.5856 230.7463 0011725 277.2083 82.7881 16.37185507124845 MO-122 1 60209U 24125G 25137.50792541 .00021988 00000-0 63932-3 0 9996 2 60209 97.2816 349.3952 0018141 215.7304 144.2727 15.35299462 48414 AO-123 1 61781U 24199AY 25137.53163085 .00009195 00000-0 33778-3 0 9992 2 61781 97.3573 5.5705 0014068 280.8273 79.1383 15.28052706 73366 SO-124 1 62690U 25009CK 25136.71207297 .00032221 00000-0 11963-2 0 9993 2 62690 97.4094 217.6407 0004625 164.7334 195.4046 15.27495427 18509 NO-44 1 26931U 01043C 25137.17402447 .00000163 00000-0 92103-4 0 9995 2 26931 67.0500 188.3561 0005858 274.0423 86.0009 14.31723279233911 IO-117 1 53106U 22080B 25051.21822557 -.00000003 00000-0 00000+0 0 9995 2 53106 70.1434 106.3440 0008542 48.0089 312.1297 6.42557744 61200 SONATE-2 1 59112U 24043Q 25136.90208465 .00016122 00000-0 47626-3 0 9992 2 59112 97.5112 267.6239 0011460 193.2739 166.8204 15.34971623 66703 HADES-ICM 1 98637U 25052X 25097.34937086 .00000000 00000-0 22734-2 0 03 2 98637 97.4434 352.3349 0004588 234.4420 181.4632 15.18769867 02